[[{"header":{"parameterUnit":"m.s-1","parameterCategory":2,"la1":30.2991,"la2":30.254,"lo1":-89.0895,"lo2":-89.0444,"dy":0.0017,"dx":0.0017,"nx":28,"ny":28,"refTime":"2025-04-12T21:00:00:Z","depth":"0","parameterNumber":2,"parameterNumberName":"U-component_of_CURRENTS"},"data":[0,0,0,0,0,0,0,0,0,0,0,0,0,0,0,0,0,0,0,0,0,0,0,0,0,0,0,0,0,0,0,0,0,0,0,0,0,0,0,0,0,0,0,0,0,0,0,0,0,0,0,0,0,0,0,0,0,0,0.3184,0.3185,0,0.3211,0.3211,0.3211,0.3189,0.3189,0.3188,0.3188,0.3158,0.3158,0.3157,0,0,0,0,0,0,0,0,0,0,0,0,0,0.3115,0.3116,0.3184,0.3185,0.3186,0.3211,0.3211,0.3211,0.3189,0.3189,0.3188,0.3187,0.3158,0.3158,0.3157,0,0,0,0,0,0,0,0,0,0,0,0,0,0.3139,0.3116,0.3184,0.3182,0.3182,0.3211,0.3211,0.3211,0.3189,0.3189,0.3188,0.3187,0.3158,0.3158,0.3157,0.3169,0,0,0.3156,0.3156,0,0,0,0,0,0,0,0,0.3138,0.3141,0.3181,0.3182,0.3182,0.32,0.3176,0.3196,0.319,0.3181,0.3188,0.3187,0.3171,0.3169,0.317,0.3167,0.3166,0.3156,0.3155,0.3155,0.3155,0,0,0,0,0,0,0,0.3136,0.314,0.319,0.3182,0.3183,0.318,0.3182,0.3179,0.3175,0.3182,0.3182,0.3193,0.317,0.317,0.3169,0.3165,0.3156,0.3155,0.3155,0.3155,0.3209,0.3211,0,0,0,0,0,0,0.3143,0.3138,0.3189,0.3191,0.3163,0.3182,0.3184,0.3191,0.3176,0.3175,0.3193,0.3192,0.3171,0.3169,0.3168,0.323,0.3155,0.3155,0.3154,0.3207,0.321,0.3211,0,0,0,0,0,0,0.3142,0.3147,0.3188,0.3169,0.3175,0.3184,0.3192,0.3192,0.3198,0.3186,0.3183,0.3201,0.3171,0.3168,0.3186,0.3227,0.3154,0.3154,0.3205,0.3208,0.3211,0.3323,0,0,0,0,0,0,0.3139,0.3147,0.3153,0.317,0.3176,0.3218,0.3194,0.3194,0.3208,0.3206,0.3192,0.3188,0.317,0.3187,0.3185,0.3225,0.3154,0.3203,0.3207,0.321,0.3317,0.3329,0.334,0,0,0,0,0,0.3137,0.3155,0.3153,0.316,0.3185,0.322,0.3222,0.3223,0.321,0.3222,0.3218,0.3188,0.3206,0.3188,0.3186,0.3226,0.3202,0.3206,0.3209,0.3312,0.3327,0.3339,0,0,0,0,0,0,0.3138,0.3155,0.3153,0.3178,0.3202,0.3218,0.3231,0.3231,0.3237,0.3231,0.3211,0.3209,0.3244,0.3216,0.3197,0.3251,0.3199,0.3203,0.3278,0.3291,0.3303,0.3278,0.3153,0,0,0,0,0,0.314,0.3153,0.3176,0.3198,0.3208,0.3219,0.3232,0.3236,0.3247,0.3248,0.3241,0.3237,0.3258,0.3259,0.3264,0.3289,0.3297,0.3312,0.3323,0.3333,0.3312,0.3402,0.342,0.3224,0.3224,0.3224,0,0,0.3149,0.3162,0.3169,0.3199,0.3211,0.3238,0.3224,0.3251,0.3272,0.3244,0.3265,0.3278,0.3275,0.3314,0.3326,0.3295,0.3396,0.3338,0.3347,0.3319,0.3408,0.3428,0.3445,0.3227,0.3227,0.3226,0,0,0.3174,0.3182,0.3197,0.3218,0.3246,0.3258,0.3269,0.329,0.3295,0.3325,0.3323,0.3358,0.3365,0.3385,0.3393,0.3464,0.346,0.3471,0.3502,0.3592,0.3609,0.3624,0.3676,0.3694,0.3469,0.347,0.347,0,0.3186,0.3202,0.3212,0.3236,0.3255,0.3269,0.3295,0.3313,0.3339,0.336,0.3341,0.341,0.3399,0.3474,0.3489,0.3491,0.3529,0.3456,0.3609,0.3623,0.3637,0.3686,0.3706,0.3475,0.3475,0.3474,0.3474,0,0.3218,0.3234,0.325,0.3277,0.3304,0.3332,0.3359,0.3387,0.3395,0.342,0.3491,0.3502,0.3544,0.3557,0.3533,0.3633,0.3627,0.3625,0.3578,0.3664,0.371,0.3728,0.3484,0.3482,0.348,0.3479,0,0,0.3233,0.3263,0.3267,0.3282,0.3324,0.3351,0.3396,0.3449,0.3489,0.3527,0.3592,0.3631,0.3653,0.3661,0.3671,0.3719,0.3843,0.3702,0.3704,0.3758,0.4033,0.3925,0.3933,0.3888,0.3891,0.3894,0.4033,0,0.3252,0.3291,0.3303,0.335,0.3373,0.3403,0.3447,0.3502,0.354,0.3608,0.3657,0.3719,0.3694,0.3728,0.3785,0.3828,0.3892,0.3803,0.3934,0.3936,0.3836,0.3951,0.3713,0.3809,0.4051,0.4054,0.4056,0,0.3273,0.3296,0.333,0.3381,0.3394,0.3426,0.3502,0.3547,0.3646,0.368,0.3769,0.3811,0.3902,0.386,0.4005,0.3959,0.3995,0.4018,0.4025,0.3886,0.3861,0.3758,0.3831,0.3726,0.4083,0.4081,0.4079,0,0.3272,0.3316,0.3338,0.3355,0.3416,0.3443,0.3485,0.3572,0.3622,0.3737,0.3798,0.3919,0.3978,0.4071,0.4114,0.4084,0.4256,0.4234,0.4177,0.417,0.3964,0.3932,0.3944,0.4342,0.4341,0.4341,0.434,0,0.3282,0.3302,0.3335,0.3354,0.3394,0.3444,0.3509,0.3566,0.3669,0.3744,0.3842,0.3918,0.4033,0.4139,0.4178,0.4235,0.4334,0.4192,0.4209,0.3996,0.3966,0.3857,0.3812,0.4346,0.4345,0.4344,0.4343,0,0.3267,0.3288,0.3321,0.3376,0.3391,0.3424,0.3508,0.3562,0.3663,0.3767,0.3813,0.3951,0.4068,0.4177,0.4307,0.4297,0.4236,0.4363,0.4079,0.4057,0.3851,0.382,0.3723,0.3626,0.4319,0.4318,0.4316,0,0.3253,0.3267,0.3322,0.3335,0.3351,0.3404,0.3442,0.3543,0.36,0.3773,0.382,0.3966,0.4041,0.42,0.4192,0.4268,0.4177,0.409,0.3967,0.3813,0.3796,0.3684,0.3603,0.3757,0.3751,0.3746,0.3742,0,0.3227,0.3247,0.3275,0.3306,0.3333,0.3374,0.3436,0.3476,0.3602,0.3674,0.3758,0.3833,0.3953,0.3892,0.3985,0.3997,0.3853,0.399,0.3923,0.3422,0.321,0.3132,0.3683,0.3699,0.3704,0.3707,0.3709,0.3711,0.3197,0.3208,0.3245,0.326,0.3286,0.331,0.33,0.3372,0.3423,0.346,0.3597,0.3593,0.3614,0.3672,0.3682,0.3502,0.3556,0.3369,0.3371,0.3294,0.3098,0.353,0.3505,0.3508,0.3511,0.3513,0.3515,0,0.314,0.3163,0.3191,0.319,0.3159,0.3218,0.3255,0.3207,0.3181,0.3242,0.3248,0.3184,0.3126,0.3151,0.3032,0.2907,0.2801,0.2831,0.2621,0.2596,0.3058,0.2927,0.2661,0.2661,0.2661,0.2661,0.2661,0.2662,0.3112,0.3109,0.3124,0.3045,0.3031,0.2942,0.2927,0.2879,0.2873,0.2745,0.266,0.268,0.278,0.2706,0.2544,0.2478,0.2323,0.2169,0.227,0.2583,0.2632,0.268,0.2548,0.2207,0.2206,0.1652,0.1648,0.1645]},{"header":{"parameterUnit":"m.s-1","parameterCategory":2,"la1":30.2991,"la2":30.254,"lo1":-89.0895,"lo2":-89.0444,"dy":0.0017,"dx":0.0017,"nx":28,"ny":28,"refTime":"2025-04-12T21:00:00:Z","depth":"0","parameterNumber":3,"parameterNumberName":"V-component_of_CURRENTS"},"data":[0,0,0,0,0,0,0,0,0,0,0,0,0,0,0,0,0,0,0,0,0,0,0,0,0,0,0,0,0,0,0,0,0,0,0,0,0,0,0,0,0,0,0,0,0,0,0,0,0,0,0,0,0,0,0,0,0,0,0.001,0.0009,0,-0.0045,-0.0046,-0.0047,-0.009,-0.009,-0.0091,-0.0091,-0.0159,-0.016,-0.0162,0,0,0,0,0,0,0,0,0,0,0,0,0,0.0023,0.0023,0.001,0.0009,0.0008,-0.0045,-0.0046,-0.0047,-0.009,-0.009,-0.0091,-0.0091,-0.0158,-0.016,-0.0162,0,0,0,0,0,0,0,0,0,0,0,0,0,-0.0003,0.0023,0.001,-0.0019,-0.0022,-0.0045,-0.0046,-0.0047,-0.009,-0.009,-0.0091,-0.0091,-0.0158,-0.016,-0.0162,-0.0167,0,0,-0.0169,-0.017,0,0,0,0,0,0,0,0,-0.0002,-0.0004,-0.0014,-0.0017,-0.002,-0.006,-0.0066,-0.0088,-0.009,-0.0065,-0.0091,-0.0091,-0.0126,-0.0131,-0.0142,-0.017,-0.0173,-0.017,-0.0171,-0.0172,-0.0173,0,0,0,0,0,0,0,0.0,-0.0002,-0.0013,-0.0014,-0.0018,-0.0047,-0.0051,-0.0071,-0.0094,-0.0067,-0.007,-0.0074,-0.0128,-0.0139,-0.0144,-0.0174,-0.0169,-0.0172,-0.0173,-0.0174,-0.0202,-0.0201,0,0,0,0,0,0,0.0013,-0.0,-0.0012,-0.0015,-0.0011,-0.0047,-0.0051,-0.0048,-0.0093,-0.01,-0.0074,-0.0076,-0.0135,-0.0141,-0.0146,-0.0136,-0.0172,-0.0174,-0.0175,-0.0203,-0.0202,-0.0201,0,0,0,0,0,0,0.0013,0.0013,-0.0009,-0.0008,-0.0013,-0.0046,-0.0042,-0.0049,-0.0058,-0.0098,-0.0105,-0.0076,-0.0136,-0.0143,-0.0161,-0.014,-0.0175,-0.0177,-0.0203,-0.0202,-0.0201,-0.0128,0,0,0,0,0,0,0.0014,0.0013,0.0018,-0.0007,-0.0013,-0.0013,-0.0042,-0.0049,-0.0059,-0.0063,-0.0102,-0.0109,-0.0137,-0.0157,-0.0163,-0.0144,-0.0179,-0.0204,-0.0203,-0.0202,-0.0131,-0.0125,-0.0119,0,0,0,0,0,0.0015,0.003,0.0019,0.0017,-0.0004,-0.0012,-0.0017,-0.0044,-0.0059,-0.0055,-0.0086,-0.0108,-0.0154,-0.0159,-0.0166,-0.0146,-0.0205,-0.0203,-0.0202,-0.0134,-0.0126,-0.0119,0,0,0,0,0,0,0.0037,0.0026,0.0014,0.0024,0.001,-0.0018,-0.0019,-0.0037,-0.0059,-0.0065,-0.0104,-0.0113,-0.0123,-0.0145,-0.0149,-0.0152,-0.0181,-0.0181,-0.0127,-0.012,-0.0114,-0.0083,-0.0181,0,0,0,0,0,0.0045,0.0054,0.0035,0.0043,0.0039,0.0011,0.0003,-0.0013,-0.0036,-0.0046,-0.0074,-0.0101,-0.0123,-0.0129,-0.0155,-0.0154,-0.0156,-0.0145,-0.0139,-0.0133,-0.0114,-0.0096,-0.0086,-0.0197,-0.0197,-0.0197,0,0,0.0053,0.005,0.0053,0.0048,0.0034,0.0041,0.0005,0.0001,0.0009,-0.005,-0.0049,-0.0086,-0.012,-0.0124,-0.0128,-0.0137,-0.0105,-0.0132,-0.0127,-0.0109,-0.0093,-0.0082,-0.0073,-0.0196,-0.0196,-0.0196,0,0,0.0083,0.0075,0.0093,0.0089,0.0079,0.0064,0.0068,0.0045,0.0036,0.0028,-0.0011,-0.0026,-0.0064,-0.0074,-0.0086,-0.0059,-0.008,-0.0075,-0.001,0.0007,0.0016,0.0025,0.0033,0.0042,-0.0063,-0.0063,-0.0063,0,0.0092,0.0115,0.0096,0.0115,0.0119,0.0082,0.0103,0.0092,0.0066,0.0072,0.0039,0.0009,-0.0032,-0.0012,-0.0016,-0.0041,-0.0043,-0.0035,0.0017,0.0025,0.0033,0.0039,0.0048,-0.0059,-0.006,-0.006,-0.006,0,0.0136,0.0153,0.0165,0.0179,0.0181,0.0192,0.0179,0.018,0.0159,0.0149,0.0154,0.0106,0.0098,0.0075,0.0029,0.0067,0.0044,0.0017,0.0004,0.0049,0.0052,0.006,-0.0054,-0.0055,-0.0056,-0.0057,0,0,0.0157,0.019,0.0194,0.0217,0.0217,0.0228,0.0247,0.0261,0.0292,0.0259,0.0307,0.0248,0.0228,0.0213,0.0169,0.0171,0.0201,0.0116,0.0115,0.0135,0.0234,0.0194,0.0198,0.0181,0.0183,0.0184,0.0214,0,0.0195,0.0251,0.0255,0.0305,0.0331,0.0319,0.0349,0.0356,0.0353,0.039,0.0358,0.0375,0.0283,0.0288,0.0275,0.0222,0.0225,0.0195,0.0179,0.0179,0.0146,0.0207,0.0191,0.0214,0.0221,0.0222,0.0223,0,0.0235,0.027,0.0328,0.0384,0.0395,0.0421,0.0471,0.0495,0.0528,0.0532,0.0547,0.0523,0.0527,0.0444,0.0403,0.0386,0.0319,0.0271,0.0271,0.0218,0.0154,0.0169,0.0227,0.0117,0.0235,0.0234,0.0233,0,0.0262,0.0323,0.0375,0.039,0.0443,0.0474,0.0503,0.0538,0.0587,0.0639,0.0689,0.0675,0.0688,0.0619,0.0499,0.0459,0.0456,0.0393,0.0301,0.0296,0.0273,0.0264,0.0235,0.0379,0.0379,0.0379,0.0379,0,0.0302,0.0345,0.0396,0.0425,0.0506,0.0522,0.0612,0.0638,0.0712,0.0807,0.0774,0.0846,0.0728,0.0703,0.0579,0.0475,0.0523,0.0336,0.0313,0.0295,0.0288,0.0181,0.0107,0.038,0.0379,0.0379,0.0379,0,0.0326,0.0354,0.0423,0.0491,0.052,0.0578,0.0686,0.076,0.0813,0.0946,0.0978,0.0987,0.0957,0.0836,0.0729,0.0585,0.0419,0.0433,0.0413,0.0387,0.0173,0.0103,0.0054,0.0014,0.0346,0.0345,0.0345,0,0.0345,0.0381,0.047,0.0528,0.0564,0.0655,0.0732,0.0803,0.0897,0.104,0.1122,0.113,0.1162,0.099,0.0749,0.0565,0.0432,0.0396,0.0308,0.0184,0.009,0.004,0.0007,0.0306,0.0305,0.0304,0.0304,0,0.0386,0.0412,0.0472,0.0587,0.0674,0.0784,0.0901,0.0991,0.1108,0.1229,0.1373,0.1413,0.1247,0.1042,0.0755,0.0606,0.0312,0.0374,0.0265,0.0082,0.001,-0.0047,0.0253,0.0298,0.0298,0.0299,0.0299,0.0299,0.0417,0.0466,0.0548,0.0662,0.077,0.0911,0.101,0.1154,0.1322,0.1509,0.1535,0.161,0.1296,0.0905,0.0684,0.0262,0.0268,0.0114,0.0049,0.0018,-0.0049,0.0232,0.0231,0.0231,0.0231,0.0231,0.0231,0,0.0466,0.0525,0.0627,0.0764,0.0892,0.0938,0.1128,0.1243,0.145,0.1602,0.1721,0.1609,0.1233,0.0841,0.0267,-0.0019,-0.0108,-0.0158,-0.0228,-0.024,0.0032,0.0001,-0.0072,-0.0072,-0.0072,-0.0072,-0.0072,-0.0072,0.0496,0.0592,0.0646,0.0847,0.095,0.1117,0.1226,0.1398,0.1535,0.1702,0.1739,0.1746,0.1447,0.0481,-0.0148,-0.028,-0.0449,-0.0509,-0.0565,-0.0395,-0.0374,-0.0355,-0.04,-0.0556,-0.0557,-0.0802,-0.0805,-0.0807]}],[{"header":{"parameterUnit":"m.s-1","parameterCategory":2,"la1":30.2991,"la2":30.254,"lo1":-89.0895,"lo2":-89.0444,"dy":0.0017,"dx":0.0017,"nx":28,"ny":28,"refTime":"2025-04-12T21:00:00:Z","depth":"2","parameterNumber":2,"parameterNumberName":"U-component_of_CURRENTS"},"data":[0,0,0,0,0,0,0,0,0,0,0,0,0,0,0,0,0,0,0,0,0,0,0,0,0,0,0,0,0,0,0,0,0,0,0,0,0,0,0,0,0,0,0,0,0,0,0,0,0,0,0,0,0,0,0,0,0,0,0.244,0.244,0,0.244,0.244,0.2439,0.2456,0.2457,0.2457,0.2458,0.2447,0.2446,0.2445,0,0,0,0,0,0,0,0,0,0,0,0,0,0.2404,0.2405,0.244,0.244,0.244,0.244,0.244,0.2439,0.2456,0.2457,0.2458,0.2458,0.2447,0.2446,0.2445,0,0,0,0,0,0,0,0,0,0,0,0,0,0.2412,0.2405,0.244,0.2449,0.245,0.244,0.244,0.2439,0.2456,0.2457,0.2458,0.2459,0.2447,0.2446,0.2445,0.242,0,0,0.2441,0.2441,0,0,0,0,0,0,0,0,0.2412,0.2413,0.2448,0.2449,0.245,0.245,0.2423,0.2433,0.2456,0.2452,0.2458,0.2459,0.2447,0.2446,0.2442,0.2419,0.2419,0.2441,0.244,0.244,0.2439,0,0,0,0,0,0,0,0.2411,0.2413,0.2438,0.2448,0.2449,0.2437,0.2439,0.2425,0.2444,0.2453,0.2454,0.2456,0.2448,0.2443,0.2442,0.2419,0.2441,0.244,0.2439,0.2439,0.2495,0.2497,0,0,0,0,0,0,0.2416,0.2413,0.2438,0.2438,0.2434,0.2437,0.2439,0.2448,0.2444,0.2445,0.2456,0.2457,0.2445,0.2444,0.2442,0.2501,0.244,0.2439,0.2438,0.2493,0.2495,0.2498,0,0,0,0,0,0,0.2415,0.2418,0.2438,0.2426,0.2428,0.2437,0.2446,0.2448,0.2465,0.2447,0.2447,0.2474,0.2446,0.2443,0.2468,0.2497,0.2438,0.2437,0.249,0.2494,0.2497,0.2562,0,0,0,0,0,0,0.2414,0.2418,0.243,0.2427,0.2429,0.2452,0.2445,0.2447,0.2464,0.2467,0.2462,0.2461,0.2446,0.247,0.2466,0.2495,0.2436,0.2487,0.2492,0.2496,0.2557,0.2568,0.2576,0,0,0,0,0,0.2413,0.2423,0.2431,0.2434,0.2444,0.2453,0.2454,0.2461,0.2464,0.2478,0.2488,0.2462,0.2494,0.247,0.2466,0.2494,0.2485,0.249,0.2495,0.2553,0.2566,0.2576,0,0,0,0,0,0,0.2415,0.2426,0.2434,0.2448,0.2461,0.2457,0.2466,0.2472,0.2488,0.2496,0.248,0.2481,0.2518,0.25,0.2473,0.2528,0.2489,0.2493,0.2535,0.2546,0.2555,0.2561,0.2435,0,0,0,0,0,0.2421,0.2432,0.2443,0.2457,0.2464,0.2469,0.2475,0.2485,0.2494,0.2503,0.2501,0.251,0.253,0.2534,0.2542,0.2557,0.2566,0.2579,0.2588,0.2596,0.2602,0.2668,0.2684,0.2514,0.2514,0.2514,0,0,0.2424,0.2432,0.2439,0.2458,0.2464,0.2481,0.2475,0.2494,0.252,0.2497,0.2531,0.254,0.2545,0.2578,0.2592,0.2567,0.2648,0.2603,0.2609,0.261,0.2675,0.2692,0.2706,0.2518,0.2517,0.2517,0,0,0.2435,0.2446,0.2462,0.2474,0.2495,0.2498,0.2511,0.2524,0.2547,0.2579,0.2583,0.2617,0.2625,0.2644,0.2653,0.2717,0.2701,0.2721,0.2763,0.2828,0.2842,0.2855,0.2879,0.2893,0.2719,0.2719,0.2719,0,0.2442,0.2459,0.2469,0.2487,0.2499,0.2511,0.2534,0.2556,0.258,0.261,0.2604,0.2664,0.2661,0.2719,0.2744,0.2738,0.276,0.2715,0.284,0.2853,0.2864,0.2886,0.2901,0.2723,0.2723,0.2722,0.2722,0,0.2465,0.248,0.2488,0.2516,0.2537,0.2552,0.2586,0.2618,0.2643,0.2669,0.2741,0.2751,0.2791,0.2798,0.2786,0.2871,0.2855,0.2848,0.2807,0.2885,0.2903,0.2917,0.2729,0.2727,0.2726,0.2725,0,0,0.2469,0.2498,0.2502,0.2517,0.2551,0.2569,0.2624,0.2677,0.2729,0.2765,0.2832,0.2874,0.2893,0.2906,0.2906,0.2948,0.3042,0.2934,0.2935,0.295,0.3168,0.3046,0.305,0.3064,0.3068,0.307,0.3143,0,0.2482,0.252,0.2532,0.2565,0.2586,0.2616,0.2666,0.2725,0.2779,0.2846,0.289,0.295,0.2933,0.296,0.3009,0.3043,0.3085,0.3021,0.3096,0.3098,0.2975,0.3064,0.2817,0.2852,0.3157,0.3159,0.3161,0,0.2492,0.2521,0.2558,0.2598,0.2612,0.2635,0.2723,0.2771,0.2873,0.2924,0.3,0.3035,0.3114,0.3081,0.3191,0.3157,0.3171,0.3182,0.3186,0.3058,0.3003,0.2826,0.2866,0.3184,0.3182,0.318,0.3179,0,0.2486,0.2527,0.2557,0.2569,0.2627,0.2658,0.2696,0.2798,0.2863,0.2977,0.3048,0.3136,0.3196,0.3249,0.3276,0.3254,0.3375,0.3349,0.3249,0.324,0.3034,0.3,0.3427,0.3427,0.3427,0.3426,0.3426,0,0.2475,0.2496,0.2554,0.2567,0.2613,0.2665,0.2738,0.2796,0.2912,0.2987,0.3088,0.3164,0.3249,0.3319,0.3323,0.3331,0.3426,0.3272,0.3264,0.3047,0.3015,0.3304,0.3288,0.3429,0.3429,0.3428,0.3428,0,0.2438,0.248,0.2509,0.2577,0.26,0.2634,0.2735,0.2806,0.2924,0.3028,0.307,0.3221,0.3299,0.3352,0.3427,0.3388,0.34,0.337,0.3085,0.304,0.3205,0.3193,0.3281,0.3277,0.3275,0.3272,0.327,0,0.2415,0.2433,0.2495,0.253,0.255,0.262,0.2678,0.2789,0.2854,0.3043,0.3079,0.3214,0.3247,0.3322,0.3275,0.3257,0.3341,0.3018,0.2924,0.3215,0.3198,0.319,0.3182,0.268,0.2673,0.2668,0.2663,0,0.2384,0.2407,0.2441,0.2491,0.2544,0.259,0.2663,0.2711,0.284,0.2917,0.3001,0.3046,0.3122,0.2985,0.2977,0.2938,0.2998,0.2903,0.3322,0.2742,0.265,0.2633,0.2644,0.2614,0.2619,0.2623,0.2625,0.2627,0.2361,0.2362,0.2411,0.2442,0.2503,0.2518,0.2515,0.2582,0.2621,0.2667,0.2805,0.2776,0.2803,0.2644,0.2561,0.2508,0.2706,0.2593,0.2609,0.2632,0.2537,0.2444,0.235,0.2353,0.2356,0.2358,0.236,0,0.2329,0.2329,0.2363,0.2377,0.2378,0.2448,0.2472,0.2419,0.2369,0.2443,0.2451,0.2253,0.2161,0.2199,0.2029,0.2018,0.2004,0.1948,0.1911,0.1961,0.2005,0.1877,0.1516,0.1513,0.1511,0.1508,0,0,0.2303,0.2299,0.2286,0.2236,0.2256,0.218,0.2159,0.2093,0.2072,0.1985,0.1942,0.2085,0.2141,0.1805,0.1758,0.1606,0.1776,0.1548,0.223,0.2238,0.2279,0.2385,0.2246,0,0,0,0,0]},{"header":{"parameterUnit":"m.s-1","parameterCategory":2,"la1":30.2991,"la2":30.254,"lo1":-89.0895,"lo2":-89.0444,"dy":0.0017,"dx":0.0017,"nx":28,"ny":28,"refTime":"2025-04-12T21:00:00:Z","depth":"2","parameterNumber":3,"parameterNumberName":"V-component_of_CURRENTS"},"data":[0,0,0,0,0,0,0,0,0,0,0,0,0,0,0,0,0,0,0,0,0,0,0,0,0,0,0,0,0,0,0,0,0,0,0,0,0,0,0,0,0,0,0,0,0,0,0,0,0,0,0,0,0,0,0,0,0,0,0.0233,0.0232,0,0.0199,0.0199,0.0198,0.0165,0.0165,0.0164,0.0164,0.0115,0.0114,0.0113,0,0,0,0,0,0,0,0,0,0,0,0,0,0.0227,0.0227,0.0233,0.0232,0.0232,0.0199,0.0199,0.0198,0.0165,0.0165,0.0164,0.0164,0.0116,0.0115,0.0113,0,0,0,0,0,0,0,0,0,0,0,0,0,0.0214,0.0227,0.0233,0.0212,0.021,0.02,0.0199,0.0198,0.0165,0.0165,0.0164,0.0164,0.0116,0.0115,0.0113,0.0114,0,0,0.0109,0.0108,0,0,0,0,0,0,0,0,0.0215,0.0214,0.0216,0.0214,0.0212,0.0187,0.0179,0.017,0.0165,0.0181,0.0164,0.0163,0.0139,0.0136,0.0129,0.0112,0.011,0.0109,0.0108,0.0107,0.0107,0,0,0,0,0,0,0,0.0216,0.0215,0.0218,0.0215,0.0213,0.0191,0.0189,0.0177,0.0162,0.018,0.0177,0.0176,0.0138,0.013,0.0128,0.0109,0.0109,0.0107,0.0106,0.0106,0.0077,0.0077,0,0,0,0,0,0,0.0225,0.0216,0.0219,0.0217,0.0213,0.0192,0.0189,0.0194,0.0162,0.0157,0.0176,0.0174,0.0133,0.0129,0.0126,0.0129,0.0107,0.0106,0.0105,0.0077,0.0077,0.0077,0,0,0,0,0,0,0.0225,0.0226,0.0221,0.0216,0.0214,0.0193,0.0198,0.0194,0.0186,0.016,0.0155,0.0173,0.0133,0.0128,0.0112,0.0127,0.0105,0.0104,0.0077,0.0077,0.0077,0.0134,0,0,0,0,0,0,0.0225,0.0226,0.0231,0.0217,0.0215,0.022,0.0199,0.0194,0.0186,0.0183,0.0155,0.015,0.0132,0.0115,0.0111,0.0125,0.0103,0.0076,0.0077,0.0077,0.0132,0.0136,0.0139,0,0,0,0,0,0.0225,0.0239,0.0232,0.0232,0.0224,0.0221,0.0218,0.0199,0.0187,0.0188,0.0164,0.0151,0.0113,0.0114,0.0109,0.0123,0.0076,0.0077,0.0077,0.013,0.0135,0.0139,0,0,0,0,0,0,0.0237,0.0237,0.0229,0.0241,0.0233,0.0216,0.0216,0.0203,0.0185,0.018,0.0152,0.0146,0.0136,0.0119,0.012,0.0113,0.0093,0.0092,0.0135,0.0139,0.0143,0.0166,0.0101,0,0,0,0,0,0.0243,0.0254,0.0246,0.0254,0.0253,0.0234,0.0229,0.0218,0.0201,0.0193,0.0174,0.0152,0.0135,0.0129,0.011,0.0109,0.0091,0.0114,0.0117,0.0121,0.0135,0.0119,0.0123,0.0078,0.0078,0.0078,0,0,0.0249,0.0251,0.0256,0.0257,0.0248,0.0258,0.023,0.0228,0.0234,0.0191,0.0191,0.0163,0.0135,0.0131,0.0126,0.012,0.0121,0.0121,0.0125,0.0137,0.0119,0.0124,0.0128,0.0078,0.0078,0.0078,0,0,0.0272,0.0269,0.0287,0.0287,0.0281,0.0273,0.0275,0.0261,0.0253,0.0246,0.0216,0.0198,0.0175,0.0161,0.015,0.0164,0.0139,0.0155,0.02,0.0184,0.0188,0.0191,0.0166,0.0167,0.0162,0.0162,0.0162,0,0.0277,0.0302,0.029,0.0307,0.0313,0.0284,0.0305,0.0295,0.0277,0.0278,0.0254,0.0223,0.0192,0.0196,0.0195,0.0175,0.0158,0.0187,0.019,0.0193,0.0196,0.0169,0.017,0.0165,0.0165,0.0164,0.0164,0,0.0314,0.0332,0.0343,0.0359,0.0363,0.0374,0.0364,0.0363,0.0346,0.0336,0.033,0.0287,0.0273,0.0256,0.0228,0.0235,0.0214,0.0194,0.0184,0.0204,0.0174,0.0173,0.0169,0.0168,0.0167,0.0166,0,0,0.0331,0.0364,0.0367,0.0392,0.0393,0.0406,0.0416,0.0426,0.0446,0.0412,0.0437,0.0388,0.0365,0.035,0.0314,0.0296,0.0284,0.0258,0.0256,0.0242,0.0243,0.0205,0.02,0.0267,0.0267,0.0267,0.0213,0,0.0363,0.0415,0.0419,0.0467,0.0495,0.0482,0.0503,0.0505,0.0496,0.0511,0.0466,0.0468,0.0402,0.04,0.037,0.0313,0.0286,0.03,0.0218,0.0216,0.0187,0.0199,0.0219,0.0171,0.0212,0.0211,0.0211,0,0.0399,0.0433,0.0488,0.0541,0.0552,0.0573,0.0609,0.0626,0.0629,0.0626,0.0612,0.0575,0.0547,0.0487,0.04,0.0413,0.0334,0.0279,0.0275,0.0224,0.0176,0.0157,0.0167,0.0209,0.0209,0.021,0.021,0,0.0429,0.0485,0.0535,0.055,0.0597,0.062,0.0644,0.066,0.0699,0.0704,0.0735,0.0677,0.0669,0.0567,0.0437,0.0423,0.0338,0.0303,0.0191,0.0187,0.0181,0.0176,0.0238,0.0238,0.0238,0.0238,0.0238,0,0.0469,0.0511,0.0557,0.0586,0.0658,0.067,0.0745,0.0756,0.0799,0.0866,0.0803,0.0837,0.0691,0.0618,0.048,0.0337,0.0366,0.0206,0.0176,0.0198,0.0195,0.0211,0.0209,0.0236,0.0237,0.0237,0.0237,0,0.0499,0.0524,0.0591,0.065,0.0676,0.0728,0.0822,0.0885,0.0908,0.0995,0.1005,0.0967,0.0867,0.0704,0.0541,0.0407,0.0263,0.0199,0.0229,0.0202,0.011,0.0111,0.0077,0.0075,0.0074,0.0073,0.0072,0,0.0521,0.0557,0.0641,0.0694,0.0725,0.0808,0.088,0.0933,0.101,0.1078,0.1131,0.1063,0.1016,0.076,0.0516,0.0271,0.0244,0.013,0.0099,0.0122,0.0096,0.0099,0.0102,0.0108,0.0108,0.0107,0.0107,0,0.0568,0.0592,0.0653,0.0758,0.084,0.0943,0.1044,0.1122,0.1198,0.1256,0.1309,0.127,0.1034,0.079,0.0459,0.0296,0.0169,0.0111,0.0143,0.0143,0.0146,0.0122,0.0125,0.0102,0.0103,0.0103,0.0103,0.0103,0.0603,0.0657,0.0737,0.0838,0.0935,0.1061,0.115,0.1253,0.1364,0.144,0.1417,0.1353,0.1099,0.0659,0.0394,0.0119,0.0127,0.0027,0.0031,0.0035,0.0046,0.0046,-0.0015,-0.0015,-0.0016,-0.0016,-0.0016,0,0.0659,0.0722,0.0818,0.0938,0.1042,0.109,0.1251,0.1327,0.1441,0.1489,0.1496,0.1241,0.0977,0.0685,0.0275,0.0029,0.0021,-0.0047,0.0004,0.001,0.0015,0.0026,-0.0041,-0.0042,-0.0042,-0.0043,0,0,0.0694,0.0792,0.0843,0.1006,0.1091,0.1231,0.1322,0.1411,0.1466,0.1488,0.1444,0.1377,0.104,0.0742,0.0418,0.0188,0.0153,0.014,0.0185,0.029,0.0298,0.0081,0.0107,0,0,0,0,0]}],[{"header":{"parameterUnit":"m.s-1","parameterCategory":2,"la1":30.2991,"la2":30.254,"lo1":-89.0895,"lo2":-89.0444,"dy":0.0017,"dx":0.0017,"nx":28,"ny":28,"refTime":"2025-04-12T21:00:00:Z","depth":"4","parameterNumber":2,"parameterNumberName":"U-component_of_CURRENTS"},"data":[0,0,0,0,0,0,0,0,0,0,0,0,0,0,0,0,0,0,0,0,0,0,0,0,0,0,0,0,0,0,0,0,0,0,0,0,0,0,0,0,0,0,0,0,0,0,0,0,0,0,0,0,0,0,0,0,0,0,0.1341,0.1341,0,0.1373,0.1374,0.1375,0.1428,0.1429,0.143,0.1431,0.1485,0.1486,0.1486,0,0,0,0,0,0,0,0,0,0,0,0,0,0.1328,0.1328,0.1341,0.1341,0.1341,0.1373,0.1374,0.1375,0.1428,0.1429,0.143,0.1431,0.1485,0.1486,0.1487,0,0,0,0,0,0,0,0,0,0,0,0,0,0.1347,0.1328,0.1341,0.137,0.1372,0.1373,0.1374,0.1375,0.1428,0.1429,0.143,0.1431,0.1484,0.1486,0.1487,0.1471,0,0,0.149,0.1491,0,0,0,0,0,0,0,0,0.1346,0.1348,0.1365,0.1368,0.1371,0.1396,0.1389,0.1407,0.1428,0.141,0.1431,0.1432,0.1454,0.1458,0.1465,0.1474,0.1476,0.149,0.1491,0.1491,0.1492,0,0,0,0,0,0,0,0.1345,0.1347,0.1357,0.1365,0.1369,0.1382,0.1386,0.1393,0.1428,0.1411,0.1415,0.1414,0.1457,0.1464,0.1467,0.1477,0.149,0.1491,0.1492,0.1492,0.1574,0.1575,0,0,0,0,0,0,0.1334,0.1345,0.1356,0.1357,0.1358,0.1381,0.1386,0.1389,0.1428,0.1434,0.1413,0.1416,0.1462,0.1466,0.1469,0.1527,0.1491,0.1492,0.1493,0.1572,0.1574,0.1576,0,0,0,0,0,0,0.1333,0.1334,0.1354,0.135,0.1353,0.138,0.1383,0.1389,0.1431,0.1428,0.1435,0.1452,0.1463,0.1468,0.1507,0.1527,0.1493,0.1494,0.1571,0.1573,0.1575,0.1595,0,0,0,0,0,0,0.1333,0.1334,0.1349,0.1349,0.1353,0.1379,0.1382,0.1388,0.1425,0.1431,0.1463,0.1467,0.1464,0.1505,0.1508,0.1528,0.1495,0.1569,0.1572,0.1574,0.1593,0.1598,0.1602,0,0,0,0,0,0.1332,0.1341,0.135,0.1352,0.1367,0.1379,0.1384,0.1407,0.1426,0.145,0.1473,0.1468,0.1525,0.1507,0.151,0.1531,0.1567,0.1571,0.1574,0.159,0.1597,0.1602,0,0,0,0,0,0,0.1342,0.1346,0.1357,0.1367,0.1384,0.1388,0.141,0.1426,0.1464,0.1479,0.1483,0.1489,0.1531,0.1533,0.1513,0.1565,0.1547,0.1551,0.1559,0.1565,0.1569,0.1597,0.1496,0,0,0,0,0,0.1349,0.1363,0.1367,0.1382,0.1391,0.1409,0.1423,0.144,0.1461,0.1481,0.15,0.1523,0.154,0.1556,0.1571,0.1597,0.1612,0.1615,0.162,0.1624,0.1651,0.1691,0.1702,0.1587,0.1587,0.1587,0,0,0.1357,0.1362,0.1371,0.1387,0.1402,0.1417,0.1423,0.1453,0.1475,0.1478,0.1528,0.1543,0.1553,0.1583,0.1602,0.159,0.1661,0.1628,0.1631,0.1657,0.1696,0.1707,0.1717,0.1589,0.1589,0.1588,0,0,0.1364,0.1386,0.1396,0.1414,0.1439,0.1447,0.1464,0.1487,0.1514,0.1555,0.1561,0.1598,0.1625,0.1636,0.1642,0.1687,0.1687,0.169,0.1734,0.1771,0.1781,0.179,0.1803,0.1813,0.169,0.169,0.169,0,0.1379,0.1386,0.1403,0.1418,0.1435,0.1464,0.148,0.1507,0.1545,0.157,0.1581,0.1646,0.1652,0.1687,0.1705,0.1698,0.1715,0.1703,0.1777,0.1786,0.1795,0.1807,0.1818,0.1691,0.1691,0.1691,0.1691,0,0.1382,0.1405,0.1415,0.1443,0.1465,0.1489,0.1515,0.1557,0.1594,0.1617,0.1683,0.1702,0.1748,0.1745,0.174,0.1801,0.179,0.1777,0.1759,0.1808,0.1817,0.1828,0.1693,0.1693,0.1692,0.1692,0,0,0.138,0.141,0.1423,0.1438,0.1482,0.1497,0.1545,0.1588,0.1636,0.1685,0.1745,0.1782,0.1817,0.183,0.1831,0.1862,0.1922,0.1854,0.1855,0.1861,0.1999,0.185,0.1847,0.1923,0.1926,0.1928,0.1972,0,0.1385,0.1407,0.1426,0.1465,0.1475,0.1524,0.1563,0.1614,0.1672,0.1741,0.1782,0.1844,0.1839,0.1876,0.191,0.1926,0.1957,0.1911,0.1958,0.1959,0.1816,0.1857,0.1936,0.198,0.1982,0.1984,0.1985,0,0.1379,0.1397,0.1424,0.1469,0.1482,0.152,0.1603,0.1646,0.174,0.1792,0.1874,0.1914,0.1985,0.1973,0.2046,0.202,0.2029,0.203,0.2031,0.19,0.1831,0.1928,0.2005,0.2003,0.2002,0.2001,0.1999,0,0.1349,0.1396,0.1417,0.1436,0.1492,0.1534,0.1581,0.1671,0.1727,0.1848,0.191,0.1992,0.2057,0.2091,0.2109,0.2094,0.217,0.214,0.2011,0.2,0.2111,0.2102,0.2201,0.22,0.22,0.22,0.22,0,0.1324,0.1351,0.1416,0.143,0.1478,0.1531,0.1607,0.1675,0.1788,0.185,0.195,0.2012,0.2098,0.2144,0.2142,0.2106,0.2201,0.2035,0.201,0.2115,0.2105,0.2117,0.2107,0.2202,0.2201,0.2201,0.2201,0,0.1274,0.1318,0.1348,0.1425,0.1459,0.1501,0.1616,0.1667,0.1791,0.1885,0.1932,0.2061,0.2118,0.2161,0.2212,0.2136,0.2117,0.2079,0.2188,0.2165,0.1914,0.1905,0.1943,0.1938,0.1934,0.1931,0.1928,0,0.124,0.1252,0.1338,0.1369,0.1412,0.1488,0.1533,0.1658,0.1713,0.1886,0.1913,0.2035,0.2093,0.2051,0.2102,0.2082,0.2053,0.2019,0.1972,0.1921,0.1893,0.1889,0.1885,0.1922,0.1921,0.192,0.1919,0,0.1169,0.1216,0.1238,0.131,0.1368,0.1415,0.1497,0.1528,0.1662,0.1796,0.1859,0.189,0.1947,0.197,0.1969,0.1947,0.2025,0.1977,0.1985,0.194,0.1895,0.1871,0.1872,0.1905,0.1907,0.1908,0.1909,0,0.1124,0.1124,0.1169,0.1232,0.1301,0.1324,0.137,0.1428,0.1499,0.1687,0.1701,0.1819,0.1938,0.1901,0.1895,0.1866,0.1834,0.1752,0.1771,0.1787,0.171,0.1628,0.1546,0,0,0,0,0,0.106,0.1054,0.1092,0.1139,0.1209,0.125,0.1337,0.1384,0.1513,0.1517,0.1611,0.1654,0.1677,0.1737,0.1674,0.1801,0.1824,0.1715,0.1735,0.1828,0.1844,0.1764,0,0,0,0,0,0,0.1016,0.1028,0.1048,0.1059,0.1084,0.1133,0.1179,0.1256,0.1264,0.1411,0.1439,0.1549,0.16,0.171,0.165,0.166,0.1632,0.179,0.1785,0.1819,0.1834,0.1846,0.177,0,0,0,0,0]},{"header":{"parameterUnit":"m.s-1","parameterCategory":2,"la1":30.2991,"la2":30.254,"lo1":-89.0895,"lo2":-89.0444,"dy":0.0017,"dx":0.0017,"nx":28,"ny":28,"refTime":"2025-04-12T21:00:00:Z","depth":"4","parameterNumber":3,"parameterNumberName":"V-component_of_CURRENTS"},"data":[0,0,0,0,0,0,0,0,0,0,0,0,0,0,0,0,0,0,0,0,0,0,0,0,0,0,0,0,0,0,0,0,0,0,0,0,0,0,0,0,0,0,0,0,0,0,0,0,0,0,0,0,0,0,0,0,0,0,0.0212,0.0212,0,0.0199,0.0199,0.0199,0.019,0.019,0.019,0.019,0.0171,0.0171,0.0171,0,0,0,0,0,0,0,0,0,0,0,0,0,0.0201,0.0201,0.0212,0.0212,0.0212,0.0199,0.0199,0.0199,0.019,0.019,0.019,0.019,0.0172,0.0171,0.017,0,0,0,0,0,0,0,0,0,0,0,0,0,0.0198,0.0201,0.0212,0.0206,0.0205,0.0199,0.0199,0.0199,0.019,0.019,0.019,0.019,0.0172,0.0171,0.017,0.0167,0,0,0.0168,0.0168,0,0,0,0,0,0,0,0,0.0198,0.0199,0.0207,0.0206,0.0206,0.0196,0.0188,0.0188,0.019,0.0196,0.019,0.019,0.0179,0.0178,0.0176,0.0166,0.0165,0.0168,0.0168,0.0168,0.0167,0,0,0,0,0,0,0,0.0199,0.0199,0.0207,0.0207,0.0206,0.0194,0.0194,0.0188,0.0188,0.0195,0.0195,0.0194,0.0179,0.0176,0.0175,0.0165,0.0168,0.0168,0.0167,0.0167,0.0149,0.0149,0,0,0,0,0,0,0.0203,0.0199,0.0207,0.0206,0.0202,0.0195,0.0195,0.0199,0.0188,0.0186,0.0194,0.0193,0.0177,0.0176,0.0174,0.0177,0.0168,0.0167,0.0166,0.0149,0.0149,0.0149,0,0,0,0,0,0,0.0202,0.0204,0.0207,0.0202,0.0202,0.0195,0.02,0.0199,0.02,0.0187,0.0185,0.0197,0.0177,0.0175,0.017,0.0176,0.0167,0.0166,0.0149,0.0149,0.0149,0.0178,0,0,0,0,0,0,0.0202,0.0204,0.0209,0.0203,0.0202,0.0209,0.02,0.0199,0.0199,0.0199,0.0189,0.0187,0.0177,0.0171,0.017,0.0175,0.0165,0.0149,0.0149,0.0149,0.0177,0.0179,0.018,0,0,0,0,0,0.0202,0.0211,0.0209,0.021,0.021,0.0209,0.0208,0.0202,0.02,0.0203,0.0193,0.0187,0.0169,0.0171,0.0169,0.0174,0.0149,0.0149,0.0149,0.0176,0.0178,0.018,0,0,0,0,0,0,0.0206,0.0211,0.0209,0.0218,0.0215,0.0208,0.021,0.0206,0.0201,0.0201,0.0188,0.0185,0.0183,0.0173,0.0175,0.0167,0.0158,0.0157,0.0179,0.0181,0.0183,0.0191,0.0165,0,0,0,0,0,0.021,0.0221,0.0217,0.0225,0.0225,0.0218,0.0218,0.0215,0.0209,0.0207,0.0199,0.0189,0.018,0.0176,0.0167,0.0165,0.0141,0.0165,0.0167,0.0169,0.0173,0.0134,0.0132,0.0149,0.0149,0.0149,0,0,0.0215,0.0217,0.0223,0.0226,0.0224,0.0231,0.0218,0.0221,0.0226,0.0205,0.021,0.0196,0.018,0.0177,0.0174,0.017,0.015,0.0169,0.017,0.0173,0.0134,0.0132,0.0131,0.0148,0.0148,0.0148,0,0,0.0227,0.023,0.0242,0.0245,0.0245,0.0241,0.0244,0.024,0.0238,0.0239,0.0224,0.0211,0.0204,0.0189,0.0181,0.0185,0.0161,0.0185,0.0201,0.0163,0.0162,0.016,0.0124,0.0119,0.0186,0.0186,0.0186,0,0.023,0.0248,0.0244,0.0256,0.0262,0.0249,0.0263,0.0258,0.0252,0.0251,0.0245,0.0223,0.0208,0.0198,0.0198,0.0189,0.0165,0.0197,0.0165,0.0163,0.0161,0.0125,0.0119,0.0187,0.0187,0.0187,0.0187,0,0.0252,0.0268,0.0275,0.0288,0.0291,0.0302,0.0296,0.0297,0.0292,0.0284,0.0275,0.025,0.0238,0.0228,0.0216,0.0196,0.0183,0.0172,0.0162,0.0161,0.0123,0.0116,0.0189,0.0188,0.0188,0.0188,0,0,0.026,0.0287,0.029,0.0308,0.0312,0.0321,0.0326,0.0327,0.0336,0.0317,0.032,0.0292,0.0276,0.0265,0.0244,0.021,0.0169,0.0189,0.0186,0.0157,0.0086,0.0084,0.0076,0.0153,0.0152,0.0151,0.0065,0,0.028,0.0316,0.032,0.0353,0.0372,0.0366,0.0376,0.0373,0.0365,0.0363,0.0325,0.0321,0.0291,0.029,0.0249,0.0193,0.0153,0.0193,0.0089,0.0086,0.0086,0.0068,0.0148,0.006,0.0058,0.0057,0.0056,0,0.0301,0.0326,0.0364,0.0399,0.0406,0.0422,0.044,0.0449,0.0432,0.0427,0.0404,0.0375,0.0329,0.0304,0.0198,0.0226,0.0161,0.0109,0.0104,0.0089,0.0071,0.006,0.0043,0.0044,0.0045,0.0046,0.0047,0,0.0319,0.0358,0.0394,0.0406,0.0436,0.0454,0.0471,0.0469,0.0489,0.047,0.0475,0.0411,0.039,0.0294,0.0187,0.0192,0.0062,0.0055,-0.0013,-0.0014,0.0002,0.0005,-0.0027,-0.0026,-0.0026,-0.0026,-0.0026,0,0.0341,0.0372,0.0411,0.0433,0.0483,0.049,0.0536,0.054,0.0552,0.0573,0.0516,0.0509,0.0386,0.0298,0.0193,0.0068,0.0062,-0.0014,-0.0038,0.0016,0.0021,-0.0003,0.0,-0.0029,-0.0029,-0.0028,-0.0027,0,0.0358,0.038,0.0429,0.0475,0.0495,0.0533,0.0595,0.0627,0.0629,0.0653,0.0651,0.0581,0.0467,0.0331,0.0172,0.0088,-0.0039,-0.0084,-0.0019,-0.0037,-0.0092,-0.0086,-0.0164,-0.0164,-0.0165,-0.0166,-0.0166,0,0.037,0.0396,0.0464,0.0502,0.053,0.0591,0.0636,0.0667,0.07,0.0693,0.0703,0.0609,0.0542,0.0317,0.0169,-0.0037,-0.0064,-0.0133,-0.0112,-0.0092,-0.0107,-0.01,-0.0093,-0.0167,-0.0168,-0.0168,-0.0168,0,0.0393,0.0418,0.0462,0.054,0.0599,0.0665,0.0728,0.0757,0.0782,0.0787,0.0746,0.063,0.0501,0.0324,0.0162,0.0014,-0.009,-0.014,-0.014,-0.012,-0.0097,-0.011,-0.0102,-0.017,-0.017,-0.017,-0.017,0,0.0412,0.0447,0.0505,0.0576,0.065,0.0711,0.0744,0.078,0.081,0.0801,0.0782,0.0642,0.0566,0.035,0.0197,0.0053,0.0022,-0.0023,-0.0029,-0.0028,0.0037,0.0088,0.0048,0,0,0,0,0,0.0427,0.0471,0.0536,0.0612,0.0684,0.0725,0.0793,0.0817,0.084,0.0822,0.0806,0.0685,0.0468,0.0373,0.023,0.0174,-0.0013,0.0001,-0.0069,-0.0184,-0.0181,-0.0128,0,0,0,0,0,0,0.044,0.05,0.0536,0.0626,0.0679,0.0758,0.08,0.0815,0.0804,0.0804,0.0693,0.0648,0.0438,0.0552,0.0227,0.0183,0.0118,-0.0095,-0.0099,-0.0186,-0.0183,-0.0181,-0.0125,0,0,0,0,0]}]]